Chezy-en-Orxois, France

11:58 PM CET on November 17, 2018 (GMT +0100)
Chezy-en-Orxois

Weather History for 07157 - June, 2004

Change the Weather History Date:

Monday, June 14, 2004

  Actual Average Record
Temperature  
Mean Temperature 62 °F -  
Max Temperature 77 °F 72 °F - ()
Min Temperature 48 °F 55 °F - ()
Degree Days  
Heating Degree Days 2    
Growing Degree Days 12 (Base 50)    
Moisture  
Dew Point 48 °F    
Average Humidity 63    
Maximum Humidity 93    
Minimum Humidity 31    
Precipitation  
Precipitation 0.00 in - - ()
Sea Level Pressure  
Sea Level Pressure 30.40 in    
Wind  
Wind Speed 6 mph ()    
Max Wind Speed 16 mph    
Max Gust Speed -    
Visibility 6.2 miles    
Events      
T = Trace of Precipitation, MM = Missing Value Source: Averaged Metar Reports

Daily Weather History Graph

Daily Weather History Graph

Search for Another Location

Airport or City:

Astronomy

Jun. 14, 2004 Rise Set
Actual Time 5:44 AM CEST 9:55 PM CEST
Civil Twilight 5:02 AM CEST 10:38 PM CEST
Nautical Twilight 4:01 AM CEST 11:39 PM CEST
Astronomical Twilight 2:22 AM CEST 1:17 AM CEST
Moon 3:43 AM CEST (6/14) 6:54 PM CEST (6/14)
Length of Visible Light 17h 36m
Length of Day
16h 10m
Waning Crescent, 10% of the Moon is Illuminated
Jun 14
Waning Crescent
Jun 17
New
Jun 25
First Quarter
Jul 2
Full
Jul 9
Last Quarter

Hourly Weather History & Observations

Time (CEST) Temp. Dew Point Humidity Pressure Visibility Wind Dir Wind Speed Gust Speed Precip Events Conditions
12:00 AM 55.4 °F 46.4 °F 72% 30.45 in - North 5.8 mph - N/A   Clear
12:30 AM 53.6 °F 46.4 °F 77% 30.45 in - NNE 4.6 mph - N/A   Clear
1:00 AM 53.6 °F 46.4 °F 77% 30.45 in - NE 4.6 mph - N/A   Clear
1:30 AM 51.8 °F 46.4 °F 82% 30.45 in - NNE 5.8 mph - N/A   Clear
2:00 AM 51.8 °F 46.4 °F 82% 30.45 in - North 5.8 mph - N/A   Clear
2:30 AM 50.0 °F 46.4 °F 87% 30.45 in - North 3.5 mph - N/A   Clear
3:00 AM 50.0 °F 46.4 °F 87% 30.45 in - North 5.8 mph - N/A   Clear
3:30 AM 50.0 °F 46.4 °F 87% 30.45 in - North 2.3 mph - N/A   Clear
4:00 AM 50.0 °F 46.4 °F 87% 30.45 in - North 5.8 mph - N/A   Clear
4:30 AM 48.2 °F 46.4 °F 93% 30.45 in - North 6.9 mph - N/A   Clear
5:00 AM 48.2 °F 46.4 °F 93% 30.45 in - North 6.9 mph - N/A   Clear
5:30 AM 48.2 °F 44.6 °F 87% 30.45 in - North 6.9 mph - N/A   Clear
6:00 AM 48.2 °F 44.6 °F 87% 30.45 in - North 5.8 mph - N/A   Clear
6:30 AM 48.2 °F 44.6 °F 87% 30.45 in - North 6.9 mph - N/A   Clear
7:00 AM 50.0 °F 46.4 °F 87% 30.45 in - NNE 5.8 mph - N/A   Clear
7:30 AM 51.8 °F 46.4 °F 82% 30.45 in - North 4.6 mph - N/A   Clear
8:00 AM 53.6 °F 48.2 °F 82% 30.45 in - North 5.8 mph - N/A   Clear
8:30 AM 55.4 °F 50.0 °F 82% 30.45 in - NNE 8.1 mph - N/A   Clear
9:00 AM 57.2 °F 50.0 °F 77% 30.45 in - NNE 5.8 mph - N/A   Clear
9:30 AM 59.0 °F 50.0 °F 72% 30.45 in - NNE 5.8 mph - N/A   Clear
10:00 AM 60.8 °F 48.2 °F 63% 30.45 in - ENE 5.8 mph - N/A   Clear
10:30 AM 62.6 °F 48.2 °F 59% 30.45 in 6.2 mi NE 6.9 mph - N/A   Scattered Clouds
11:00 AM 64.4 °F 46.4 °F 52% 30.45 in - ENE 6.9 mph - N/A   Clear
11:30 AM 64.4 °F 46.4 °F 52% 30.42 in - ENE 8.1 mph - N/A   Clear
12:00 PM 66.2 °F 46.4 °F 49% 30.42 in - ENE 6.9 mph - N/A   Clear
12:30 PM 68.0 °F 44.6 °F 43% 30.42 in - NE 8.1 mph - N/A   Clear
1:00 PM 69.8 °F 42.8 °F 38% 30.42 in - North 9.2 mph - N/A   Clear
1:30 PM 69.8 °F 44.6 °F 40% 30.42 in - NNE 9.2 mph - N/A   Clear
2:00 PM 69.8 °F 44.6 °F 40% 30.42 in - NNE 10.4 mph - N/A   Clear
2:30 PM 73.4 °F 42.8 °F 33% 30.39 in - NE 10.4 mph - N/A   Clear
3:00 PM 73.4 °F 44.6 °F 36% 30.39 in - NNE 10.4 mph - N/A   Clear
3:30 PM 75.2 °F 44.6 °F 34% 30.36 in - NE 10.4 mph - N/A   Clear
4:00 PM 75.2 °F 42.8 °F 31% 30.36 in - NE 8.1 mph - N/A   Clear
4:30 PM 75.2 °F 42.8 °F 31% 30.36 in - ENE 11.5 mph - N/A   Clear
5:00 PM 77.0 °F 46.4 °F 34% 30.36 in - NNE 11.5 mph - N/A   Clear
5:30 PM 75.2 °F 51.8 °F 44% 30.36 in - NNE 16.1 mph - N/A   Clear
6:00 PM 75.2 °F 53.6 °F 47% 30.33 in - North 13.8 mph - N/A   Clear
6:30 PM 73.4 °F 53.6 °F 50% 30.33 in - NNE 12.7 mph - N/A   Clear
7:00 PM 73.4 °F 53.6 °F 50% 30.33 in - NNE 12.7 mph - N/A   Clear
7:30 PM 73.4 °F 55.4 °F 53% 30.33 in - NNE 11.5 mph - N/A   Clear
8:00 PM 73.4 °F 55.4 °F 53% 30.30 in - NNE 9.2 mph - N/A   Clear
8:30 PM 71.6 °F 55.4 °F 57% 30.30 in - NNE 9.2 mph - N/A   Clear
9:00 PM 71.6 °F 55.4 °F 57% 30.30 in - NNE 6.9 mph - N/A   Clear
9:30 PM 69.8 °F 55.4 °F 60% 30.30 in - NNE 6.9 mph - N/A   Clear
10:00 PM 68.0 °F 55.4 °F 64% 30.30 in - NNE 4.6 mph - N/A   Clear
10:30 PM 68.0 °F 55.4 °F 64% 30.30 in - NNE 5.8 mph - N/A   Clear
11:00 PM 66.2 °F 55.4 °F 68% 30.30 in - NNE 5.8 mph - N/A   Clear
11:30 PM 66.2 °F 57.2 °F 73% 30.30 in - NNE 5.8 mph - N/A   Clear